Location: Englos
(50.6266°N, 2.9572°E)
Time: 14:39:07
(UTC+00:00)

Daily predictions for brighter satellites

Satellite Brightness Start Highest point End
(mag) Time Altitude Azimuth Time Altitude Azimuth Time Altitude Azimuth
Cosmos 1538 Rocket 4.0 20:37:37 10° S 20:42:44 65° ESE 20:47:58 10° NNE
Iridium 4 Rocket 3.9 20:39:24 10° SSE 20:44:10 42° E 20:48:35 10° NNE
Okean O Rocket 1.8 20:40:07 10° S 20:44:29 75° WSW 20:48:54 10° NNW
Cosmos 1833 Rocket 2.9 20:38:51 10° NNW 20:44:31 78° WSW 20:50:09 10° SSE
Terra 3.3 20:40:25 10° SSW 20:44:45 35° W 20:49:05 10° NNW
CZ-4B R/B 4.1 20:40:33 10° S 20:45:42 46° W 20:50:49 10° NNW
USA 59 Rocket 0.9 20:43:39 10° SSE 20:46:12 18° ESE 20:48:25 10° ENE
NOSS 2-3 (E) 3.4 20:42:56 10° SW 20:46:35 77° NW 20:50:28 10° NE
CZ-4B R/B 3.9 20:47:44 10° SE 20:52:45 54° ENE 20:57:52 10° N
Cosmos 1953 2.1 20:54:00 10° N 20:57:34 67° ENE 21:01:06 10° SSE
Cosmos 1328 Rocket 4.2 20:54:45 10° SSE 20:58:46 38° E 21:02:47 10° NNE
Cosmos 1151 Rocket 3.6 20:54:47 10° SSW 20:59:03 61° WNW 21:03:21 10° N
GP-B 3.2 20:56:47 10° N 21:01:08 60° E 21:05:26 10° S
S3M 4.3 20:55:39 10° SSE 21:01:29 50° E 21:07:25 10° NNE
Cosmos 1553 Rocket 4.2 20:56:26 10° SSW 21:02:47 82° W 21:09:04 10° N
Cosmos 1371 Rocket 4.5 20:59:58 10° NNW 21:05:06 51° ENE 21:10:08 10° SE
BREEZE-M R/B 3.8 21:02:51 10° SW 21:06:36 43° SE 21:13:37 10° ENE
NOSS 3-2 (C) 3.7 21:01:34 10° SW 21:06:42 67° NW 21:13:01 10° NE
CZ-2C R/B 3.3 21:05:30 10° SE 21:07:48 25° ENE 21:10:09 10° N
Cosmos 2082 Rocket 3.0 21:02:30 10° NNW 21:07:50 42° NE 21:13:09 10° ESE
Cosmos 1709 Rocket 4.2 21:01:46 10° N 21:08:07 63° ENE 21:14:26 10° SSE
NOSS 2-1 (C) 4.3 21:07:48 10° S 21:10:46 21° SE 21:13:19 10° ENE
Cosmos 2278 Rocket 2.8 21:08:40 10° S 21:13:47 36° ESE 21:18:56 10° NE
Cosmos 1666 Rocket 3.5 21:13:20 10° N 21:17:41 81° E 21:21:56 10° SSE
Meteor 1-16 Rocket 4.4 21:14:26 10° N 21:20:02 63° ENE 21:25:27 11° SSE
USA 238 DEB 3.6 21:16:55 10° SSW 21:22:51 54° ESE 21:29:23 10° NE
USA 238 3.6 21:17:10 10° SSW 21:23:04 54° ESE 21:29:36 10° NE
SPOT 3 Rocket 3.9 21:18:00 10° S 21:23:06 65° WSW 21:28:16 10° NNW
Lacrosse 5 rocket 1.8 21:20:44 10° WSW 21:24:15 55° NNW 21:27:44 10° NE
Cosmos 1943 Rocket 2.3 21:20:01 10° S 21:25:31 56° ESE 21:31:02 10° NE
Cosmos 546 4.5 21:26:17 10° WSW 21:30:04 85° S 21:33:52 10° E
Cosmos 1745 Rocket 4.3 21:29:08 10° NNW 21:35:25 70° W 21:41:42 10° S
USA 245 4.0 21:35:30 10° SSW 21:38:07 29° W 21:40:25 10° NW
Cosmos 1515 Rocket 4.1 21:36:36 14° SSE 21:40:00 42° E 21:44:05 10° NNE
Meteor 1-12 Rocket 4.4 21:37:04 10° N 21:42:47 67° ENE 21:47:40 15° SSE
Cosmos 1624 Rocket 4.1 21:40:39 10° NNW 21:45:59 80° WSW 21:50:25 15° SSE
Okean 2 3.4 21:42:54 14° S 21:46:03 57° E 21:49:52 10° NNE
Cosmos 1633 Rocket 3.4 21:43:07 10° NNW 21:47:28 62° W 21:51:28 12° S
Cosmos 1680 Rocket 3.4 21:42:45 10° SSW 21:47:54 76° ESE 21:53:08 10° NNE
COSMOS 2406 4.1 21:44:37 10° NNW 21:50:02 42° NE 21:55:18 11° ESE
Cosmos 1400 Rocket 2.9 21:47:08 10° N 21:50:44 54° ENE 21:53:10 19° SSE
Cosmos 2369 Rocket 4.2 21:51:19 10° ESE 21:52:51 11° E 21:54:24 10° ENE
Cosmos 2056 Rocket 3.7 21:49:58 10° NNW 21:55:01 65° WSW 21:59:06 16° S
ARIANE 6 FM1 Upper Stage 4.5 21:58:06 14° ESE 21:58:30 14° ESE 22:00:46 10° E
Meteor 1-23 Rocket 4.3 21:55:30 10° SSW 22:01:04 81° WNW 22:06:41 10° N
USA 215 3.5 22:02:11 10° ESE 22:08:41 75° NNE 22:15:13 10° WNW
USA 276 2.0 22:08:31 10° SW 22:10:44 36° SSE 22:13:13 10° E
Cosmos 2074 Rocket 4.2 22:07:48 10° N 22:14:00 64° ENE 22:18:40 18° SSE
NOSS 2-1 (E) 2.8 22:12:05 10° SW 22:15:55 78° SE 22:19:04 10° NE
Ariane Rocket 4.4 22:12:30 10° SSW 22:16:57 30° W 22:21:26 10° NNW
NOSS 3-1 (C) 4.1 22:21:46 19° SE 22:23:19 22° ESE 22:27:17 10° ENE
USA 308 3.0 22:26:25 25° ESE 22:26:25 25° ESE 22:28:57 10° ENE
Helios 1B rocket 2.5 22:24:53 23° SE 22:26:45 48° ENE 22:30:06 10° N
Lacrosse 4 Rocket 3.3 22:24:21 10° NNW 22:27:52 25° NE 22:31:22 10° E
Cosmos 1812 1.3 22:29:39 10° NNW 22:31:08 51° WNW 22:31:08 51° WNW
USA 59 Rocket 0.4 22:31:15 10° WSW 22:34:30 43° NW 22:37:21 10° NNE
Cosmos 1441 Rocket 2.7 22:33:46 25° SSW 22:35:30 87° WNW 22:38:45 10° NNE
Cosmos 1933 Rocket 3.7 22:31:21 10° NNW 22:35:39 66° W 22:38:23 22° S
ATLAS 5 CENTAUR R/B 1.8 22:37:18 24° ESE 22:37:18 24° ESE 22:39:41 10° ENE
Okean 3 3.4 22:34:53 19° SSW 22:37:38 77° W 22:41:41 10° N
CZ-2C R/B 4.3 22:36:44 11° SW 22:38:14 16° W 22:40:00 10° NW
BREEZE-M DEB (TANK) 3.3 22:30:51 10° WNW 22:39:19 80° NNE 22:42:08 10° E
NOSS 2-1 (D) 3.8 22:36:04 10° WSW 22:39:27 47° NW 22:42:23 10° NE
Nadezhda 1 Rocket 4.3 22:36:02 20° SSE 22:40:10 53° E 22:46:13 10° NNE
COSMOS 2455 4.5 22:38:34 14° SE 22:40:45 17° ESE 22:44:23 10° ENE
Cosmos 1110 Rocket 4.2 22:37:02 10° NNW 22:42:09 61° WSW 22:45:23 22° S
SWAS 4.4 22:40:41 12° SW 22:44:25 77° WNW 22:48:30 10° NNE
GEOS 3 Rocket 4.4 22:41:43 10° ESE 22:46:54 52° NE 22:52:07 10° NW
Cosmos 2344 4.0 22:39:39 10° WSW 22:47:07 62° NW 22:54:23 10° NE
Cosmos 2082 Rocket 2.9 22:46:41 10° NW 22:51:56 41° WSW 22:55:23 20° SSW
Cosmos 1452 Rocket 3.5 22:47:20 10° NNW 22:52:37 76° WSW 22:55:52 24° SSE
ACS3 Solar Sail 3.3 22:49:24 10° NE 22:53:24 19° E 22:56:47 12° SE
Helios 1A 3.1 22:49:42 10° N 22:53:39 67° WNW 22:56:21 19° SSW
SL-4 R/B 2.1 22:55:57 32° SE 22:55:57 32° SE 22:58:32 10° E
Cosmos 2278 Rocket 3.2 22:52:19 10° SW 22:57:45 47° NW 23:03:14 10° NNE
NOSS 2-1 (C) 4.2 22:56:07 10° WSW 22:59:24 38° NW 23:02:15 10° NNE
Cosmos 2184 Rocket 4.2 22:54:43 10° NNW 23:00:57 66° W 23:05:24 20° S
Lacrosse 5 rocket 3.2 22:58:08 10° WNW 23:01:16 28° N 23:04:21 10° ENE
Cosmos 614 Rocket 3.9 22:57:55 21° SSW 23:01:21 75° ESE 23:06:25 10° NNE
Cosmos 2154 Rocket 4.1 22:56:01 10° NNW 23:02:11 69° W 23:06:28 21° S
Cosmos 1174 3.8 23:00:26 11° SW 23:04:12 67° NW 23:07:31 10° NNE
ARIANE 5 R/B 2.6 23:05:10 27° S 23:07:35 81° WSW 23:12:02 10° NNW
Cosmos 1869 Rocket 4.3 23:03:45 10° NNW 23:07:50 42° W 23:10:17 21° SSW
Timation 2 Rocket 4.4 23:01:38 10° SW 23:07:57 66° NW 23:14:37 10° NNE
Cosmos 546 4.4 23:04:27 10° W 23:08:14 81° S 23:12:01 10° ESE
Cosmos 1943 Rocket 3.8 23:04:29 10° WSW 23:09:33 33° NW 23:14:37 10° NNE
SL-8 R/B 3.6 23:05:08 10° WSW 23:09:47 59° SSE 23:14:27 10° E
SL-8 Rocket 4.4 23:03:57 10° N 23:10:00 55° ENE 23:14:17 20° SSE
CZ-2C R/B 3.8 23:05:29 10° NNE 23:10:13 89° WNW 23:13:10 23° SSW
ARGOS Delta rocket 4.3 23:06:18 10° N 23:11:33 67° WNW 23:15:11 19° SSW
SAR-Lupe-2 3.9 23:15:20 28° SE 23:16:39 47° ENE 23:19:44 10° N
CZ-2C R/B 3.6 23:11:53 10° NNE 23:17:05 46° E 23:19:49 24° SSE
Cosmos 1733 Rocket 3.0 23:15:36 10° NNW 23:19:54 77° W 23:22:03 29° S
CZ-2C R/B 3.1 23:16:25 19° SE 23:20:02 53° ENE 23:25:12 10° N
CZ-3B R/B 4.3 23:16:36 22° S 23:20:49 44° ESE 23:43:05 10° NE
BREEZE-M R/B 4.4 23:15:30 10° W 23:20:53 85° S 23:32:23 10° E
SL-12 R/B(2) 4.3 23:15:35 14° SSW 23:22:42 70° SE 23:32:26 10° NE
ALOS 2 2.7 23:21:23 28° S 23:23:38 66° WSW 23:28:02 10° NNW
Cosmos 2341 Rocket 4.2 23:18:28 10° N 23:24:42 66° ENE 23:28:53 21° SSE
Cosmos 1707 Rocket 3.5 23:22:47 29° S 23:24:59 74° E 23:29:25 10° NNE
Cosmos 2228 Rocket 3.3 23:26:00 28° SSE 23:28:05 56° E 23:32:25 10° NNE
IRIDIUM 104 4.3 23:24:21 10° N 23:29:36 86° E 23:32:38 26° S
USA 290 2.1 23:27:02 10° NNW 23:30:11 84° ENE 23:31:10 40° SSE
Cosmos 1356 Rocket 3.8 23:26:15 10° N 23:30:13 54° ENE 23:32:18 25° SE
COSMOS 2406 3.9 23:29:02 10° NW 23:34:20 41° WSW 23:37:19 23° SSW
Cosmos 2369 Rocket 2.2 23:32:23 24° S 23:35:43 65° ESE 23:41:18 10° NE
Cosmos 1315 Rocket 2.6 23:32:39 10° NNW 23:36:29 85° WSW 23:38:04 34° S
Cosmos 1862 Rocket 3.5 23:34:20 28° SSW 23:36:33 79° W 23:40:53 10° N
ARIANE 6 FM1 Upper Stage 2.5 23:34:00 19° SW 23:36:54 86° SE 23:41:01 10° NE
IRIDIUM 114 4.3 23:33:30 10° N 23:38:45 81° W 23:41:46 26° S
Cosmos 2297 3.8 23:36:40 24° S 23:40:03 62° ESE 23:45:42 10° NE
USA 276 1.5 23:40:42 10° W 23:43:17 80° S 23:46:08 10° E
Cosmos 1656 Rocket 4.2 23:40:52 11° SW 23:46:05 55° NW 23:51:35 10° NNE
USA 308 2.4 23:45:04 14° WSW 23:47:32 75° NNW 23:51:38 10° ENE
IRIDIUM 103 4.4 23:42:41 10° N 23:47:54 69° W 23:50:55 25° SSW
Okean 1-7 3.4 23:48:24 24° SW 23:50:42 55° WNW 23:54:53 10° N
USA 215 3.5 23:47:35 20° SSE 23:51:58 49° SW 23:58:16 10° WNW
PSLV R/B 4.2 23:49:05 10° N 23:53:39 58° WNW 23:56:35 21° SW
